Tracking 25710 objects as of 6-Jul-2022
HD Live streaming from Space Station
objects crossing your sky now

FENGYUN 1C DEB

Track FENGYUN 1C DEB now!
10-day predictions


NORAD ID: 30400
Int'l Code: 1999-025ADP
Perigee: 731.4 km
Apogee: 1,133.3 km
Inclination: 99.1 °
Period: 103.5 minutes
Semi major axis: 7303 km
RCS: 0.0229 m2 (small)
Launch date: May 10, 1999
Source: People's Republic of China (PRC)
Launch site: Taiyaun Space Center, China (TSC)

Note: This is SATELLITE DEBRIS
aabbcc
Your satellite tracking list
Your tracking list is empty




NASA's NSSDC Master Catalog

Two Line Element Set (TLE):
1 30400U 99025ADP 22186.72123971  .00001138  00000-0  69337-3 0  9997
2 30400  99.1493  98.8841 0275132 187.9458 230.7314 13.90968939779510
Source of the keplerian elements: AFSPC